Weather History for West Plains, MO

Change the Weather History Date:

Wednesday, December 19, 2012

  Actual Average Record
Temperature  
Mean Temperature 46 °F 35 °F  
Max Temperature 59 °F 45 °F 73 °F (1978)
Min Temperature 32 °F 25 °F 2 °F (1981)
Degree Days  
Heating Degree Days 19 30  
Month to date heating degree days 349 527  
Since 1 July heating degree days 1293 1379  
Cooling Degree Days 0 0  
Month to date cooling degree days 0 0  
Year to date cooling degree days 1739 1354  
Moisture  
Dew Point 45 °F    
Average Humidity 82    
Maximum Humidity 93    
Minimum Humidity 70    
Precipitation  
Precipitation 0.36 in 0.11 in 2.22 in (1973)
Month to date precipitation 1.18 2.61  
Year to date precipitation 31.10 45.19  
Sea Level Pressure  
Sea Level Pressure 29.75 in    
Wind  
Wind Speed 9 mph (ESE)    
Max Wind Speed 17 mph    
Max Gust Speed 25 mph    
Visibility 7 miles    
Events Rain , Thunderstorm    
T = Trace of Precipitation, MM = Missing Value Source: NWS Daily Summary

Daily Weather History Graph

Daily Weather History Graph

Search for Another Location

Airport:

Trip Planner

Search our weather history database for the weather conditions in past years. The results will help you decide how hot, cold, wet, or windy it might be!

Date:

Astronomy

Dec. 19, 2012 Rise Set
Actual Time 7:16 AM CST 4:54 PM CST
Civil Twilight 6:47 AM CST 5:23 PM CST
Nautical Twilight 6:14 AM CST 5:55 PM CST
Astronomical Twilight 5:42 AM CST 6:27 PM CST
Moon 11:35 AM CST (12/19) No Moon Set
Length of Visible Light 10h 36m
Length of Day
9h 38m
Waxing Crescent, 45% of the Moon is Illuminated
Dec 19
Waxing Crescent
Dec 19
First Quarter
Dec 28
Full
Jan 4
Last Quarter
Jan 11
New

Hourly Weather History & Observations

Time (CST) Temp. Windchill Dew Point Humidity Pressure Visibility Wind Dir Wind Speed Gust Speed Precip Events Conditions
12:53 AM 37.9 °F 35.5 °F 32.0 °F 79% 29.89 in 10.0 mi NNE 3.5 mph - N/A   Clear
1:53 AM 37.9 °F 34.4 °F 32.0 °F 79% 29.88 in 10.0 mi NNE 4.6 mph - N/A   Clear
2:53 AM 39.0 °F 34.8 °F 30.9 °F 73% 29.89 in 10.0 mi NE 5.8 mph - N/A   Clear
3:53 AM 39.0 °F 34.8 °F 32.0 °F 76% 29.89 in 10.0 mi NE 5.8 mph - N/A   Clear
4:53 AM 39.0 °F 34.0 °F 32.0 °F 76% 29.90 in 10.0 mi NE 6.9 mph - N/A   Clear
5:53 AM 39.0 °F 34.0 °F 32.0 °F 76% 29.90 in 10.0 mi ENE 6.9 mph - N/A   Clear
6:53 AM 39.9 °F 35.1 °F 32.0 °F 73% 29.89 in 10.0 mi East 6.9 mph - N/A   Clear
7:53 AM 39.9 °F 33.9 °F 33.1 °F 77% 29.90 in 10.0 mi East 9.2 mph - N/A   Clear
8:53 AM 41.0 °F 34.3 °F 34.0 °F 76% 29.90 in 10.0 mi East 11.5 mph - N/A   Clear
9:53 AM 45.0 °F 39.3 °F 37.9 °F 76% 29.89 in 10.0 mi ESE 11.5 mph 19.6 mph N/A   Clear
10:53 AM 50.0 °F - 42.1 °F 74% 29.86 in 10.0 mi ESE 10.4 mph - N/A   Partly Cloudy
11:05 AM 51.8 °F - 42.8 °F 71% 29.85 in 10.0 mi SE 9.2 mph 17.3 mph N/A   Mostly Cloudy
11:53 AM 50.0 °F - 44.1 °F 80% 29.83 in 9.0 mi ESE 9.2 mph - N/A   Overcast
12:53 PM 50.0 °F - 45.0 °F 83% 29.79 in 8.0 mi SE 9.2 mph - N/A   Overcast
1:05 PM 50.0 °F - 44.6 °F 82% 29.79 in 8.0 mi ESE 5.8 mph - N/A   Overcast
1:53 PM 50.0 °F - 46.0 °F 86% 29.78 in 6.0 mi ESE 6.9 mph - N/A   Overcast
2:16 PM 50.0 °F - 46.4 °F 87% 29.75 in 7.0 mi SE 9.2 mph - N/A   Overcast
2:53 PM 50.0 °F - 46.0 °F 86% 29.77 in 6.0 mi ESE 8.1 mph - N/A   Overcast
3:38 PM 50.0 °F - 46.4 °F 87% 29.75 in 2.0 mi ESE 5.8 mph - N/A   Overcast
3:42 PM 50.0 °F - 48.2 °F 94% 29.76 in 1.8 mi ESE 5.8 mph - N/A   Overcast
3:53 PM 50.0 °F - 48.0 °F 93% 29.75 in 1.5 mi East 6.9 mph - N/A   Overcast
4:13 PM 50.0 °F - 48.2 °F 94% 29.73 in 1.0 mi ESE 8.1 mph - N/A   Overcast
4:21 PM 50.0 °F - 48.2 °F 94% 29.74 in 0.8 mi SE 8.1 mph - N/A   Overcast
4:53 PM 51.1 °F - 48.9 °F 92% 29.73 in 1.2 mi ESE 8.1 mph - N/A   Overcast
5:53 PM 52.0 °F - 51.1 °F 97% 29.71 in 2.5 mi ESE 8.1 mph - 0.01 in Rain Light Rain
6:03 PM 53.6 °F - 51.8 °F 94% 29.71 in 3.0 mi SE 6.9 mph - 0.00 in Rain Light Rain
6:19 PM 53.6 °F - 51.8 °F 94% 29.69 in 4.0 mi SE 8.1 mph - 0.00 in   Overcast
6:31 PM 55.4 °F - 53.6 °F 94% 29.70 in 7.0 mi SE 8.1 mph - 0.00 in   Overcast
6:53 PM 55.9 °F - 53.1 °F 90% 29.69 in 10.0 mi SE 12.7 mph 20.7 mph 0.00 in   Overcast
7:22 PM 57.2 °F - 53.6 °F 88% 29.68 in 10.0 mi SE 11.5 mph 21.9 mph N/A   Overcast
7:53 PM 57.0 °F - 53.1 °F 87% 29.67 in 10.0 mi SSE 16.1 mph 24.2 mph N/A   Overcast
8:51 PM 57.2 °F - 51.8 °F 82% 29.63 in 10.0 mi SSE 10.4 mph - N/A   Overcast
8:53 PM 57.9 °F - 52.0 °F 81% 29.62 in 10.0 mi SSE 10.4 mph - N/A   Overcast
9:53 PM 59.0 °F - 51.1 °F 75% 29.57 in 10.0 mi SSE 13.8 mph 23.0 mph N/A   Scattered Clouds
10:21 PM 59.0 °F - 50.0 °F 72% 29.57 in 10.0 mi SSE 13.8 mph - N/A   Mostly Cloudy
10:53 PM 59.0 °F - 50.0 °F 72% 29.53 in 10.0 mi SSE 11.5 mph 23.0 mph N/A   Overcast
11:04 PM 57.2 °F - 50.0 °F 77% 29.53 in 8.0 mi SSE 12.7 mph 24.2 mph 0.01 in Rain , Thunderstorm Light Thunderstorms and Rain
11:33 PM 55.4 °F - 51.8 °F 88% 29.55 in 1.8 mi South 13.8 mph 18.4 mph 0.14 in Rain , Thunderstorm Heavy Thunderstorms and Rain
11:42 PM 55.4 °F - 51.8 °F 88% 29.53 in 2.5 mi South 12.7 mph 20.7 mph 0.21 in Rain , Thunderstorm Heavy Thunderstorms and Rain